Stevens Point, WI

4:33 PM CDT on October 23, 2017 (GMT -0500)
Stevens Point Municipal

Weather History for KSTE - May, 2012

Change the Weather History Date:

Wednesday, May 23, 2012

  Actual Average Record
Temperature  
Mean Temperature 63 °F -  
Max Temperature 77 °F 70 °F 90 °F (1975)
Min Temperature 49 °F 49 °F 27 °F (1963)
Degree Days  
Heating Degree Days 2    
Growing Degree Days 13 (Base 50)    
Moisture  
Dew Point 41 °F    
Average Humidity 43    
Maximum Humidity 65    
Minimum Humidity 27    
Precipitation  
Precipitation 0.00 in - - ()
Sea Level Pressure  
Sea Level Pressure 29.77 in    
Wind  
Wind Speed 9 mph (SSE)    
Max Wind Speed 21 mph    
Max Gust Speed 28 mph    
Visibility 10 miles    
Events      
Averages and records for this station are not official NWS values.
T = Trace of Precipitation, MM = Missing Value Source: NWS Daily Summary

Daily Weather History Graph

Daily Weather History Graph

Search for Another Location

Airport or City:

Trip Planner

Search our weather history database for the weather conditions in past years. The results will help you decide how hot, cold, wet, or windy it might be!

Date:

Astronomy

May. 23, 2012 Rise Set
Actual Time 5:22 AM CDT 8:28 PM CDT
Civil Twilight 4:47 AM CDT 9:03 PM CDT
Nautical Twilight 4:02 AM CDT 9:48 PM CDT
Astronomical Twilight 3:08 AM CDT 10:42 PM CDT
Moon 7:24 AM CDT 10:49 PM CDT
Length of Visible Light 16h 15m
Length of Day
15h 06m
Waxing Crescent, 7% of the Moon is Illuminated
May 23
Waxing Crescent
May 28
First Quarter
Jun 4
Full
Jun 11
Last Quarter
Jun 19
New

Hourly Weather History & Observations

Time (CDT) Temp. Dew Point Humidity Pressure Visibility Wind Dir Wind Speed Gust Speed Precip Events Conditions
12:15 AM 54.9 °F 40.6 °F 59% 29.89 in 10.0 mi SE 6.9 mph - N/A   Clear
12:35 AM 54.5 °F 40.1 °F 58% 29.89 in 10.0 mi SE 8.1 mph - N/A   Clear
12:55 AM 54.1 °F 39.2 °F 57% 29.89 in 10.0 mi SSE 6.9 mph - N/A   Clear
1:15 AM 53.6 °F 38.8 °F 57% 29.89 in 10.0 mi SE 4.6 mph - N/A   Clear
1:35 AM 52.7 °F 38.7 °F 59% 29.89 in 10.0 mi SSE 4.6 mph - N/A   Clear
1:55 AM 52.7 °F 38.5 °F 58% 29.89 in 10.0 mi SSE 6.9 mph - N/A   Clear
2:15 AM 51.8 °F 38.3 °F 60% 29.88 in 10.0 mi SE 5.8 mph - N/A   Clear
2:35 AM 51.3 °F 38.3 °F 61% 29.86 in 10.0 mi SE 5.8 mph - N/A   Clear
2:55 AM 51.3 °F 37.9 °F 60% 29.86 in 10.0 mi SSE 6.9 mph - N/A   Clear
3:15 AM 51.3 °F 38.1 °F 61% 29.86 in 10.0 mi SSE 5.8 mph - N/A   Clear
3:35 AM 50.9 °F 38.3 °F 62% 29.87 in 10.0 mi SE 4.6 mph - N/A   Clear
4:15 AM 50.2 °F 38.3 °F 64% 29.87 in 10.0 mi SE 3.5 mph - N/A   Clear
4:35 AM 49.8 °F 38.1 °F 64% 29.86 in 10.0 mi SE 3.5 mph - N/A   Clear
5:15 AM 49.6 °F 37.6 °F 63% 29.86 in 10.0 mi SE 4.6 mph - N/A   Clear
5:35 AM 49.1 °F 37.8 °F 65% 29.85 in 10.0 mi SE 5.8 mph - N/A   Clear
5:55 AM 50.4 °F 37.8 °F 62% 29.85 in 10.0 mi SSE 4.6 mph - N/A   Clear
6:15 AM 50.9 °F 37.9 °F 61% 29.86 in 10.0 mi SSE 4.6 mph - N/A   Clear
6:35 AM 50.9 °F 37.9 °F 61% 29.88 in 10.0 mi Calm Calm - N/A   Clear
6:55 AM 53.4 °F 38.8 °F 58% 29.87 in 10.0 mi South 4.6 mph - N/A   Clear
7:35 AM 57.6 °F 38.8 °F 50% 29.88 in 10.0 mi South 10.4 mph - N/A   Clear
7:55 AM 59.0 °F 39.4 °F 48% 29.87 in 10.0 mi South 13.8 mph - N/A   Clear
8:15 AM 59.9 °F 40.5 °F 49% 29.85 in 10.0 mi South 6.9 mph - N/A   Clear
8:35 AM 60.8 °F 41.2 °F 48% 29.86 in 10.0 mi South 6.9 mph - N/A   Clear
8:55 AM 62.6 °F 42.3 °F 47% 29.85 in 10.0 mi South 9.2 mph - N/A   Clear
9:15 AM 64.8 °F 43.2 °F 45% 29.84 in 10.0 mi South 9.2 mph - N/A   Clear
9:55 AM 67.8 °F 44.1 °F 42% 29.83 in 10.0 mi SSE 13.8 mph - N/A   Clear
10:15 AM 68.2 °F 44.2 °F 42% 29.83 in 10.0 mi South 12.7 mph - N/A   Clear
10:35 AM 69.1 °F 44.1 °F 40% 29.83 in 10.0 mi SSW 11.5 mph - N/A   Clear
10:55 AM 71.1 °F 45.1 °F 39% 29.83 in 10.0 mi SSW 12.7 mph 18.4 mph N/A   Clear
11:15 AM 70.9 °F 45.0 °F 39% 29.83 in 10.0 mi South 11.5 mph - N/A   Clear
11:35 AM 71.8 °F 45.0 °F 38% 29.82 in 10.0 mi SSE 11.5 mph 18.4 mph N/A   Clear
11:55 AM 71.2 °F 44.8 °F 39% 29.82 in 10.0 mi South 10.4 mph 17.3 mph N/A   Clear
12:15 PM 72.1 °F 44.4 °F 37% 29.81 in 10.0 mi South 13.8 mph 17.3 mph N/A   Clear
12:35 PM 72.3 °F 43.9 °F 36% 29.81 in 10.0 mi South 15.0 mph 20.7 mph N/A   Clear
12:55 PM 72.5 °F 43.9 °F 36% 29.79 in 10.0 mi South 16.1 mph - N/A   Clear
1:15 PM 73.2 °F 43.5 °F 34% 29.78 in 10.0 mi South 11.5 mph 19.6 mph N/A   Clear
1:35 PM 72.5 °F 43.2 °F 35% 29.77 in 10.0 mi SSE 11.5 mph 19.6 mph N/A   Clear
1:55 PM 72.9 °F 42.1 °F 33% 29.76 in 10.0 mi South 10.4 mph 17.3 mph N/A   Clear
2:15 PM 73.8 °F 41.5 °F 31% 29.76 in 10.0 mi South 16.1 mph - N/A   Clear
2:35 PM 74.3 °F 41.4 °F 31% 29.75 in 10.0 mi SSE 11.5 mph 21.9 mph N/A   Clear
2:55 PM 75.7 °F 42.8 °F 31% 29.74 in 10.0 mi SSE 15.0 mph 20.7 mph N/A   Clear
3:15 PM 75.0 °F 40.6 °F 29% 29.73 in 10.0 mi South 17.3 mph 25.3 mph N/A   Clear
3:35 PM 74.7 °F 42.1 °F 31% 29.71 in 10.0 mi SSE 16.1 mph 23.0 mph N/A   Clear
4:15 PM 75.6 °F 41.9 °F 30% 29.69 in 10.0 mi SSE 20.7 mph 27.6 mph N/A   Clear
4:35 PM 75.6 °F 41.4 °F 29% 29.69 in 10.0 mi SSE 19.6 mph 24.2 mph N/A   Clear
4:55 PM 75.7 °F 41.4 °F 29% 29.68 in 10.0 mi SSE 15.0 mph 25.3 mph N/A   Clear
5:15 PM 76.8 °F 43.0 °F 30% 29.67 in 10.0 mi SSE 18.4 mph 24.2 mph N/A   Clear
5:35 PM 77.2 °F 40.6 °F 27% 29.67 in 10.0 mi South 19.6 mph 25.3 mph N/A   Clear
5:55 PM 77.2 °F 40.5 °F 27% 29.67 in 10.0 mi South 18.4 mph 25.3 mph N/A   Clear
6:15 PM 76.8 °F 40.1 °F 27% 29.66 in 10.0 mi SSE 17.3 mph 23.0 mph N/A   Clear
6:35 PM 76.3 °F 39.7 °F 27% 29.66 in 10.0 mi SSE 11.5 mph 21.9 mph N/A   Clear
6:55 PM 75.9 °F 39.7 °F 27% 29.64 in 10.0 mi SSE 13.8 mph 26.5 mph N/A   Clear
7:15 PM 75.2 °F 40.1 °F 28% 29.64 in 10.0 mi SSE 11.5 mph 20.7 mph N/A   Clear
7:35 PM 74.3 °F 39.0 °F 28% 29.64 in 10.0 mi South 11.5 mph 24.2 mph N/A   Clear
7:55 PM 72.9 °F 39.7 °F 30% 29.64 in 10.0 mi SE 9.2 mph 17.3 mph N/A   Clear
8:15 PM 71.1 °F 40.1 °F 32% 29.64 in 10.0 mi SE 6.9 mph - N/A   Clear
8:35 PM 69.4 °F 40.1 °F 34% 29.64 in 10.0 mi SSE 5.8 mph - N/A   Clear
8:55 PM 68.5 °F 40.1 °F 35% 29.65 in 10.0 mi SE 4.6 mph - N/A   Clear
9:15 PM 67.1 °F 40.1 °F 37% 29.65 in 10.0 mi SE 4.6 mph - N/A   Clear
9:35 PM 64.9 °F 40.8 °F 41% 29.65 in 10.0 mi ESE 5.8 mph - N/A   Clear
9:55 PM 64.6 °F 41.7 °F 43% 29.65 in 10.0 mi SE 4.6 mph - N/A   Clear
10:15 PM 64.8 °F 42.1 °F 44% 29.65 in 10.0 mi SE 6.9 mph - N/A   Clear
10:35 PM 65.3 °F 41.9 °F 42% 29.66 in 10.0 mi SE 9.2 mph - N/A   Clear
10:55 PM 65.1 °F 41.5 °F 42% 29.65 in 10.0 mi SE 9.2 mph - N/A   Clear
11:15 PM 64.6 °F 41.2 °F 42% 29.65 in 10.0 mi SSE 9.2 mph - N/A   Clear
11:35 PM 64.4 °F 41.0 °F 42% 29.65 in 10.0 mi SSE 10.4 mph - N/A   Clear
11:55 PM 64.6 °F 40.6 °F 42% 29.66 in 10.0 mi SSE 8.1 mph - N/A   Clear